Tracking 29034 objects as of 25-Jun-2024
HD Live streaming from Space Station
objects crossing your sky now

STARLINK-31265

Track STARLINK-31265 now!
10-day predictions
STARLINK-31265 is classified as:


NORAD ID: 59074
Int'l Code: 2024-041A
Perigee: 494.3 km
Apogee: 496.1 km
Inclination: 43.0 °
Period: 94.4 minutes
Semi major axis: 6866 km
RCS: Unknown
Launch date: February 29, 2024
Source: United States (US)
Launch site: AIR FORCE EASTERN TEST RANGE (AFETR)
Your satellite tracking list
Your tracking list is empty




NASA's NSSDC Master Catalog

Two Line Element Set (TLE):
1 59074U 24041A   24176.51015514  .00000657  00000-0  34964-4 0  9996
2 59074  43.0006 224.9768 0001289 280.3268  79.7437 15.25914219 19025
Source of the keplerian elements: AFSPC